Вернуться в каталог

STARLINK-37604

АктивенСвязьVLEO
NORAD 69203·PAYLOAD·🇺🇸 United States

Запущен May 25, 2026 с Cape Canaveral Space Force Station

Loading…

Ближайшие Пролёты (ближайшие 24 часа)

TLE

СвежийSource: CelesTrak SupGP

Эпоха: Sep 15, 2026, 03:20 UTC

1 69203C 26114X   26258.13937500  .00041730  00000+0  12330-2 0  2588
2 69203  53.1573 138.6307 0001257  83.1761 334.1556 15.34367636    17

Отслеживайте STARLINK-37604 в реальном времени с AllMySat

Download on the App Store